Regional Weather Roundup
Issued by NWS Newport/Morehead, NC

Current Version | Previous Version | Graphics & Text | Print | Product List | Glossary Off
Versions: 1 2 3 4 5 6 7 8 9 10 11 12 13 14 15 16 17 18 19 20 21 22 23 24 25 26 27 28 29 30 31 32 33 34 35 36 37 38 39 40 41 42 43 44 45 46 47 48 49 50
000 ASUS42 KMHX 281813 RWRMHX WEATHER ROUNDUP FOR EASTERN NORTH CAROLINA NATIONAL WEATHER SERVICE NEWPORT/MOREHEAD CITY NC 200 PM EDT FRI APR 28 2017 NOTE: "FAIR" INDICATES FEW OR NO CLOUDS BELOW 12,000 FEET WITH NO SIGNIFICANT WEATHER AND/OR OBSTRUCTIONS TO VISIBILITY NCZ015>017-031-032-045>047-102-103-281900- NORTH COAST CITY SKY/WX TMP DP RH WIND PRES REMARKS EDENTON SUNNY 87 71 59 SW7 30.08S ELIZABETH CITY MOSUNNY 85 73 67 SW13 30.07S KITTY HAWK PTCLDY 83 70 64 CALM 30.08S MANTEO PTSUNNY 80 71 75 S12 30.09S $$ NCZ045>047-081-094-103-104-281900- CENTRAL COAST CITY SKY/WX TMP DP RH WIND PRES REMARKS FRISCO PTSUNNY 80 72 76 SW10 30.13S HAZE $$ NCZ095-097-098-100-101-281900- SOUTHERN COAST CITY SKY/WX TMP DP RH WIND PRES REMARKS BEAUFORT MOSUNNY 79 75 87 S17 30.12F CEDAR ISLAND NOT AVBL JACKSONVILLE NOT AVBL PINEY ISLAND CLOUDY N/A N/A N/A SW18G28 30.11S WILMINGTON CLOUDY 83 73 72 SW12G21 30.10S $$ NCZ011>013-027>030-043-044-078>080-089-090>093-098-281900- COASTAL PLAIN CITY SKY/WX TMP DP RH WIND PRES REMARKS AHOSKIE N/A 83 70 64 S5 30.06F CLINTON MOSUNNY 87 70 56 S7 30.08S ELIZABETHTOWN MOSUNNY 88 69 53 S8G17 30.08S GOLDSBORO MOSUNNY 87 72 60 SW14 30.06F GREENVILLE PTSUNNY 86 70 58 SW10G18 30.08F HAVELOCK CLOUDY 82 72 71 SW14 30.11S KENANSVILLE PTSUNNY 88 70 55 SW6 30.08S KINSTON MOSUNNY 88 68 51 S14 30.08F NEW BERN PTSUNNY 85 74 69 S12 30.09F RICHLANDS MOSUNNY 87 73 62 S15 30.09S ROCKY MOUNT N/A 85 72 65 SW10 30.07S WASHINGTON SUNNY 86 71 59 SW9 30.07F WHITEVILLE MOSUNNY 87 70 57 S10 30.08S $$ AMZ130-135-150-152-154-156-158-170-250-252-270-ANZ085-086-088-633-658-670-281900- MARINE OBSERVATIONS STATION/POSITION TIME TEMP WIND PRES WAVE SWELL AIR SEA DIR/SP/G HT/PER HT/PER (UTC) (F) (DEG/KT/KT) (MB) (FT/S) (FT/S) CHESAPEAKE LIGHT NOT AVBL 64 E VA BEACH 1750 60 57 200/ 8/ 10 1019.7 5/ 8 5/ 8 DUCK 1748 80 56 230/ 6/ 8 1018.3 2 E DUCK 1800 63 N/A 3/ 8 2/11 OREGON INLET 1748 190/ 17/ 20 N/A 13E OREGON INLT 1748 62 N/A 5/ 6 2/11 HATTERAS CG 1748 78 71 200/ 5/ 9 1020.0 DIAMOND BUOY 1750 78 76 210/ 16/ 17 1020.3 5/ 8 3/ 8 CAPE LOOKOUT 1800 78 200/ 13/ 17 1019.8 BEAUFORT LAB 1748 76 70 200/ 11/ 14 1019.2 30 SE NEW RVR IN 1708 74 210/ 10/ 12 1020.4 30 SE NEW RVR IN 1743 72 N/A 5/ 6 27 SE WRIGHTSVLE 1708 75 73 190/ 10/ 12 1019.6 5 SE WRIGHTSVLE 1708 73 71 190/ 12/ 14 1019.6 225 S CAPE HAT 1750 76 76 170/ 12/ 14 1022.5 4/ 8 3/ 8 41 SE CHARLESTON 1750 76 75 180/ 12/ 14 1019.8 4/ 8 3/ 8 $$

USA.gov is the U.S. government's official web portal to all federal, state and local government web resources and services.